• In Belgien
  • Länderverzeichnis
  • Für 7 Tage
  • Wassertemperatur
  • Satellitenkarten
  • Wetterkarte
  • Widgets
  • user-avatar
    Anmelden

    Stündliche Wetter Perth

    Heute, 23 Januar, Dienstag

    Zeit Temperatur Niederschläge Wind Luftdruck Luftfeuchtigkeit
    00:00 +29°C° 0 mm 5 m/S 754 mmHg 56%
    01:00 +28°C° 0 mm 5 m/S 754 mmHg 58%
    02:00 +26°C° 0 mm 5 m/S 755 mmHg 59%
    03:00 +26°C° 0 mm 5 m/S 755 mmHg 61%
    04:00 +25°C° 0 mm 5 m/S 755 mmHg 64%
    05:00 +23°C° 0 mm 5 m/S 755 mmHg 67%
    06:00 +25°C° 0 mm 5 m/S 755 mmHg 65%
    07:00 +26°C° 0 mm 5 m/S 755 mmHg 63%
    08:00 +27°C° 0 mm 4 m/S 755 mmHg 61%
    09:00 +29°C° 0 mm 4 m/S 755 mmHg 55%
    10:00 +32°C° 0 mm 5 m/S 755 mmHg 50%
    11:00 +35°C° 0 mm 5 m/S 755 mmHg 44%
    12:00 +36°C° 0 mm 5 m/S 754 mmHg 41%
    13:00 +37°C° 0 mm 5 m/S 754 mmHg 38%
    14:00 +39°C° 0 mm 6 m/S 753 mmHg 34%
    15:00 +38°C° 0 mm 6 m/S 753 mmHg 34%
    16:00 +38°C° 0 mm 6 m/S 753 mmHg 35%
    17:00 +36°C° 0 mm 7 m/S 753 mmHg 35%
    18:00 +35°C° 0 mm 7 m/S 753 mmHg 37%
    19:00 +33°C° 0 mm 6 m/S 753 mmHg 40%
    20:00 +32°C° 0 mm 6 m/S 753 mmHg 43%
    21:00 +30°C° 0 mm 6 m/S 754 mmHg 47%
    22:00 +29°C° 0 mm 6 m/S 754 mmHg 50%
    23:00 +28°C° 0 mm 6 m/S 754 mmHg 54%

    Morgen, 24 Januar, Mittwoch

    Zeit Temperatur Niederschläge Wind Luftdruck Luftfeuchtigkeit
    00:00 +27°C° 0 mm 6 m/S 754 mmHg 56%
    01:00 +24°C° 0 mm 6 m/S 754 mmHg 58%
    02:00 +23°C° 0 mm 6 m/S 754 mmHg 60%
    03:00 +22°C° 0 mm 6 m/S 754 mmHg 62%
    04:00 +21°C° 0 mm 5 m/S 754 mmHg 65%
    05:00 +21°C° 0 mm 5 m/S 754 mmHg 68%
    06:00 +22°C° 0 mm 5 m/S 755 mmHg 66%
    07:00 +23°C° 0 mm 4 m/S 755 mmHg 63%
    08:00 +23°C° 0 mm 4 m/S 755 mmHg 60%
    09:00 +27°C° 0 mm 4 m/S 755 mmHg 54%
    10:00 +29°C° 0 mm 4 m/S 754 mmHg 47%
    11:00 +33°C° 0 mm 4 m/S 754 mmHg 40%
    12:00 +34°C° 0 mm 4 m/S 753 mmHg 36%
    13:00 +35°C° 0 mm 5 m/S 753 mmHg 32%
    14:00 +36°C° 0 mm 5 m/S 752 mmHg 28%
    15:00 +36°C° 0 mm 6 m/S 752 mmHg 29%
    16:00 +35°C° 0 mm 6 m/S 751 mmHg 31%
    17:00 +34°C° 0 mm 7 m/S 751 mmHg 32%
    18:00 +32°C° 0 mm 7 m/S 751 mmHg 37%
    19:00 +29°C° 0 mm 6 m/S 752 mmHg 42%
    20:00 +27°C° 0 mm 6 m/S 752 mmHg 47%
    21:00 +27°C° 0 mm 6 m/S 752 mmHg 48%
    22:00 +26°C° 0 mm 6 m/S 752 mmHg 49%
    23:00 +26°C° 0 mm 5 m/S 753 mmHg 50%

    übermorgen, 25 Januar, Donnerstag

    Zeit Temperatur Niederschläge Wind Luftdruck Luftfeuchtigkeit
    00:00 +25°C° 0 mm 5 m/S 753 mmHg 54%
    01:00 +25°C° 0 mm 5 m/S 752 mmHg 58%
    02:00 +25°C° 0 mm 4 m/S 752 mmHg 62%
    03:00 +23°C° 0 mm 4 m/S 752 mmHg 65%
    04:00 +23°C° 0 mm 4 m/S 752 mmHg 68%
    05:00 +22°C° 0 mm 4 m/S 752 mmHg 70%
    06:00 +23°C° 0 mm 4 m/S 753 mmHg 67%
    07:00 +25°C° 0 mm 4 m/S 753 mmHg 65%
    08:00 +26°C° 0 mm 4 m/S 753 mmHg 62%
    09:00 +28°C° 0 mm 4 m/S 753 mmHg 53%
    10:00 +30°C° 0 mm 4 m/S 753 mmHg 44%
    11:00 +34°C° 0 mm 4 m/S 753 mmHg 36%
    12:00 +34°C° 0 mm 4 m/S 752 mmHg 34%
    13:00 +35°C° 0 mm 5 m/S 752 mmHg 31%
    14:00 +36°C° 0 mm 6 m/S 751 mmHg 29%
    15:00 +35°C° 0 mm 6 m/S 751 mmHg 31%
    16:00 +34°C° 0 mm 6 m/S 751 mmHg 33%
    17:00 +33°C° 0 mm 6 m/S 751 mmHg 36%
    18:00 +30°C° 0 mm 6 m/S 751 mmHg 41%
    19:00 +28°C° 0 mm 6 m/S 751 mmHg 46%
    20:00 +26°C° 0 mm 6 m/S 752 mmHg 52%
    21:00 +24°C° 0 mm 6 m/S 752 mmHg 52%
    22:00 +24°C° 0 mm 6 m/S 752 mmHg 52%
    23:00 +23°C° 0 mm 5 m/S 753 mmHg 52%

    26 Januar, Freitag

    Zeit Temperatur Niederschläge Wind Luftdruck Luftfeuchtigkeit
    00:00 +23°C° 0 mm 5 m/S 752 mmHg 54%
    01:00 +22°C° 0 mm 5 m/S 752 mmHg 56%
    02:00 +22°C° 0 mm 4 m/S 752 mmHg 58%
    03:00 +21°C° 0 mm 4 m/S 752 mmHg 61%
    04:00 +21°C° 0 mm 4 m/S 752 mmHg 64%
    05:00 +21°C° 0 mm 3 m/S 752 mmHg 67%
    06:00 +22°C° 0 mm 3 m/S 752 mmHg 63%
    07:00 +25°C° 0 mm 3 m/S 752 mmHg 60%
    08:00 +26°C° 0 mm 3 m/S 753 mmHg 56%
    09:00 +29°C° 0 mm 3 m/S 753 mmHg 51%
    10:00 +32°C° 0 mm 4 m/S 752 mmHg 45%
    11:00 +34°C° 0 mm 4 m/S 752 mmHg 39%
    12:00 +34°C° 0 mm 5 m/S 752 mmHg 38%
    13:00 +34°C° 0 mm 5 m/S 751 mmHg 36%
    14:00 +35°C° 0 mm 6 m/S 750 mmHg 34%
    15:00 +34°C° 0 mm 6 m/S 750 mmHg 37%
    16:00 +33°C° 0 mm 6 m/S 750 mmHg 40%
    17:00 +30°C° 0 mm 6 m/S 750 mmHg 43%
    18:00 +28°C° 0 mm 6 m/S 751 mmHg 49%
    19:00 +26°C° 0 mm 6 m/S 751 mmHg 56%
    20:00 +23°C° 0 mm 5 m/S 751 mmHg 63%
    21:00 +23°C° 0 mm 6 m/S 751 mmHg 67%
    22:00 +22°C° 0 mm 6 m/S 752 mmHg 71%
    23:00 +22°C° 0 mm 6 m/S 752 mmHg 75%

    27 Januar, Samstag

    Zeit Temperatur Niederschläge Wind Luftdruck Luftfeuchtigkeit
    00:00 +22°C° 0 mm 6 m/S 752 mmHg 74%
    01:00 +22°C° 0 mm 6 m/S 751 mmHg 73%
    02:00 +21°C° 0 mm 5 m/S 751 mmHg 72%
    03:00 +21°C° 0 mm 5 m/S 751 mmHg 74%
    04:00 +21°C° 0 mm 5 m/S 752 mmHg 75%
    05:00 +21°C° 0 mm 4 m/S 752 mmHg 77%
    06:00 +22°C° 0 mm 5 m/S 752 mmHg 72%
    07:00 +23°C° 0 mm 5 m/S 752 mmHg 68%
    08:00 +25°C° 0 mm 5 m/S 753 mmHg 63%
    09:00 +27°C° 0 mm 6 m/S 752 mmHg 57%
    10:00 +28°C° 0 mm 6 m/S 752 mmHg 50%
    11:00 +30°C° 0 mm 6 m/S 752 mmHg 43%
    12:00 +32°C° 0 mm 7 m/S 752 mmHg 42%
    13:00 +32°C° 0 mm 7 m/S 751 mmHg 40%
    14:00 +33°C° 0 mm 8 m/S 751 mmHg 38%
    15:00 +32°C° 0 mm 8 m/S 751 mmHg 38%
    16:00 +31°C° 0 mm 8 m/S 751 mmHg 39%
    17:00 +31°C° 0 mm 9 m/S 751 mmHg 39%
    18:00 +28°C° 0 mm 8 m/S 752 mmHg 41%
    19:00 +27°C° 0 mm 8 m/S 753 mmHg 43%
    20:00 +26°C° 0 mm 8 m/S 753 mmHg 45%
    21:00 +24°C° 0 mm 7 m/S 754 mmHg 46%
    22:00 +23°C° 0 mm 7 m/S 754 mmHg 46%
    23:00 +23°C° 0 mm 7 m/S 755 mmHg 47%

    28 Januar, Sonntag

    Zeit Temperatur Niederschläge Wind Luftdruck Luftfeuchtigkeit
    00:00 +22°C° 0 mm 7 m/S 755 mmHg 51%
    01:00 +21°C° 0 mm 6 m/S 755 mmHg 54%
    02:00 +20°C° 0 mm 6 m/S 755 mmHg 57%
    03:00 +19°C° 0 mm 6 m/S 756 mmHg 60%
    04:00 +19°C° 0 mm 6 m/S 756 mmHg 62%
    05:00 +17°C° 0 mm 6 m/S 756 mmHg 64%
    06:00 +19°C° 0 mm 6 m/S 757 mmHg 61%
    07:00 +20°C° 0 mm 6 m/S 757 mmHg 57%
    08:00 +21°C° 0 mm 6 m/S 758 mmHg 54%
    09:00 +22°C° 0 mm 6 m/S 758 mmHg 48%
    10:00 +24°C° 0 mm 6 m/S 758 mmHg 43%
    11:00 +27°C° 0 mm 5 m/S 757 mmHg 37%
    12:00 +28°C° 0 mm 6 m/S 757 mmHg 34%
    13:00 +29°C° 0 mm 6 m/S 756 mmHg 30%
    14:00 +32°C° 0 mm 6 m/S 756 mmHg 27%
    15:00 +32°C° 0 mm 6 m/S 756 mmHg 26%
    16:00 +32°C° 0 mm 7 m/S 756 mmHg 25%
    17:00 +32°C° 0 mm 7 m/S 756 mmHg 25%
    18:00 +29°C° 0 mm 7 m/S 756 mmHg 27%
    19:00 +27°C° 0 mm 7 m/S 757 mmHg 30%
    20:00 +26°C° 0 mm 7 m/S 757 mmHg 32%
    21:00 +23°C° 0 mm 7 m/S 758 mmHg 36%
    22:00 +22°C° 0 mm 8 m/S 758 mmHg 41%
    23:00 +19°C° 0 mm 9 m/S 759 mmHg 45%
    Mehr zeigen